TimeEST,TemperatureF,Dew PointF,Humidity,Sea Level PressureIn,VisibilityMPH,Wind Direction,Wind SpeedMPH,Gust SpeedMPH,PrecipitationIn,Events,Conditions,WindDirDegrees,DateUTC
12:51 AM,27.0,14.0,58,30.05,10.0,WNW,16.1,24.2,N/A,,Overcast,300,2013-01-24 05:51:00
1:51 AM,27.0,14.0,58,30.06,10.0,WNW,11.5,26.5,N/A,,Overcast,290,2013-01-24 06:51:00
2:51 AM,24.1,12.0,60,30.10,10.0,NW,15.0,21.9,N/A,,Overcast,320,2013-01-24 07:51:00
3:51 AM,23.0,10.9,60,30.13,10.0,NW,13.8,24.2,N/A,,Overcast,310,2013-01-24 08:51:00
4:51 AM,21.9,10.9,63,30.14,10.0,WNW,13.8,20.7,0.00,Snow,Light Snow,300,2013-01-24 09:51:00
5:48 AM,19.4,10.4,68,30.06,2.0,NW,19.6,26.5,0.00,Snow,Light Snow,320,2013-01-24 10:48:00
5:51 AM,18.0,10.9,74,30.21,2.0,NW,19.6,26.5,0.00,Snow,Light Snow,320,2013-01-24 10:51:00
6:23 AM,17.6,10.4,73,30.09,4.0,NW,15.0,28.8,0.00,Snow,Light Snow,320,2013-01-24 11:23:00
6:51 AM,15.8,8.6,73,30.11,2.0,NW,16.1,27.6,N/A,Snow,Light Snow,320,2013-01-24 11:51:00
7:02 AM,15.8,8.6,73,30.12,1.5,NW,17.3,25.3,0.00,Snow,Light Snow,320,2013-01-24 12:02:00
7:41 AM,14.0,6.8,73,30.15,3.0,NW,17.3,31.1,0.00,Snow,Light Snow,320,2013-01-24 12:41:00
7:51 AM,14.0,5.0,67,30.31,10.0,NW,17.3,27.6,0.00,,Overcast,310,2013-01-24 12:51:00
8:09 AM,14.0,6.8,73,30.18,1.8,NW,15.0,-,0.00,Snow,Light Snow,310,2013-01-24 13:09:00
8:21 AM,12.2,6.8,79,30.19,0.8,WNW,12.7,24.2,0.00,Snow,Light Snow,300,2013-01-24 13:21:00
8:28 AM,12.2,6.8,79,30.19,0.8,NW,11.5,20.7,0.00,Snow,Light Snow,320,2013-01-24 13:28:00
8:40 AM,14.0,6.8,73,30.21,1.2,NW,12.7,-,0.00,Snow,Light Snow,310,2013-01-24 13:40:00
8:51 AM,12.9,8.1,81,30.37,0.8,NW,11.5,-,0.00,Snow,Light Snow,310,2013-01-24 13:51:00
9:01 AM,14.0,6.8,73,30.22,1.8,NW,9.2,-,0.00,Snow,Light Snow,320,2013-01-24 14:01:00
9:15 AM,14.0,6.8,73,30.23,3.0,NNW,13.8,-,0.00,Snow,Light Snow,330,2013-01-24 14:15:00
9:28 AM,14.0,6.8,73,30.24,2.0,NW,13.8,21.9,0.00,Snow,Light Snow,310,2013-01-24 14:28:00
9:51 AM,15.1,7.0,70,30.41,3.0,NW,10.4,-,0.00,Snow,Light Snow,320,2013-01-24 14:51:00
10:43 AM,15.8,6.8,68,30.28,1.5,NNW,11.5,23.0,0.00,Snow,Light Snow,330,2013-01-24 15:43:00
10:51 AM,15.1,8.1,74,30.43,0.8,NNW,13.8,19.6,0.00,Snow,Light Snow,340,2013-01-24 15:51:00
10:55 AM,15.8,8.6,73,30.29,2.0,NNW,15.0,20.7,0.00,Snow,Light Snow,340,2013-01-24 15:55:00
11:03 AM,15.8,6.8,68,30.30,10.0,North,19.6,26.5,0.00,,Mostly Cloudy,350,2013-01-24 16:03:00
11:18 AM,15.8,3.2,58,30.30,10.0,NNW,13.8,26.5,0.00,,Mostly Cloudy,340,2013-01-24 16:18:00
11:39 AM,15.8,6.8,68,30.31,2.5,NNW,13.8,23.0,0.00,Snow,Light Snow,330,2013-01-24 16:39:00
11:44 AM,15.8,6.8,68,30.31,3.0,NNW,13.8,23.0,0.00,Snow,Light Snow,340,2013-01-24 16:44:00
11:51 AM,16.0,7.0,68,30.45,5.0,NNW,10.4,18.4,0.00,Snow,Light Snow,330,2013-01-24 16:51:00
12:21 PM,15.8,3.2,58,30.31,10.0,NNW,13.8,25.3,0.00,,Overcast,340,2013-01-24 17:21:00
12:51 PM,16.0,6.1,65,30.45,9.0,NNW,10.4,-,0.00,Snow,Light Snow,340,2013-01-24 17:51:00
1:34 PM,17.6,5.0,58,30.31,10.0,North,15.0,-,0.00,,Mostly Cloudy,350,2013-01-24 18:34:00
1:41 PM,17.6,6.8,63,30.31,10.0,NNW,13.8,-,0.00,,Mostly Cloudy,330,2013-01-24 18:41:00
1:51 PM,16.0,1.9,54,30.45,8.0,North,17.3,23.0,0.00,Snow,Light Snow,360,2013-01-24 18:51:00
2:24 PM,17.6,5.0,58,30.31,10.0,North,16.1,21.9,0.00,,Mostly Cloudy,350,2013-01-24 19:24:00
2:51 PM,17.1,3.0,54,30.46,10.0,North,13.8,19.6,0.00,,Mostly Cloudy,360,2013-01-24 19:51:00
3:51 PM,16.0,3.0,57,30.48,10.0,NNE,8.1,-,N/A,,Mostly Cloudy,20,2013-01-24 20:51:00
4:51 PM,16.0,1.0,52,30.50,10.0,North,8.1,-,N/A,,Overcast,350,2013-01-24 21:51:00
5:51 PM,15.1,1.0,54,30.52,10.0,Calm,Calm,-,N/A,,Scattered Clouds,0,2013-01-24 22:51:00
6:51 PM,14.0,1.0,56,30.56,10.0,North,3.5,-,N/A,,Clear,10,2013-01-24 23:51:00
7:51 PM,12.0,1.9,64,30.57,10.0,Calm,Calm,-,N/A,,Clear,0,2013-01-25 00:51:00
8:51 PM,10.0,1.0,67,30.57,10.0,Calm,Calm,-,N/A,,Clear,0,2013-01-25 01:51:00
9:51 PM,10.9,1.9,67,30.55,10.0,ENE,4.6,-,N/A,,Clear,70,2013-01-25 02:51:00
10:51 PM,10.9,1.9,67,30.54,10.0,ESE,4.6,-,N/A,,Clear,110,2013-01-25 03:51:00
11:51 PM,12.0,1.9,64,30.51,10.0,SE,3.5,-,N/A,,Clear,130,2013-01-25 04:51:00